Tracking 20942 objects as of 10-Jul-2020
HD Live streaming from Space Station
objects crossing your sky now

COSMOS 970 DEB

Track COSMOS 970 DEB now!
10-day predictions


NORAD ID: 12942
Int'l Code: 1977-121AZ
Perigee: 1,054.1 km
Apogee: 1,202.6 km
Inclination: 65.8 °
Period: 107.7 minutes
Semi major axis: 7499 km
RCS: 0.0606 m2 (small)
Launch date: December 21, 1977
Source: Commonwealth of Independent States (former USSR) (CIS)
Launch site: TYURATAM MISSILE AND SPACE COMPLEX (TTMTR)

Note: This is SATELLITE DEBRIS
aabbcc
Your satellite tracking list
Your tracking list is empty




NASA's NSSDC Master Catalog

Two Line Element Set (TLE):
1 12942U 77121AZ  20191.83937314 +.00000043 +00000-0 +21709-3 0  9996
2 12942 065.8298 140.7611 0099025 127.3539 252.9527 13.36801934903690
Source of the keplerian elements: AFSPC